User: anonymous   Login
Location: Unspecified
(0.0000°N, 0.0000°E)
Time: 21:01:51
(UTC+02:00)
Language:

YAOGAN 1 - Orbit

View from above orbital plane
View from above orbital plane
View from above satellite
View from above satellite

Ground track
Ground track

The orbit data is extracted from the following two-line orbital elements,

1 29092U 06015A   15185.11483758  .00000235  00000-0  36052-4 0  9991
2 29092 097.9964 184.9230 0001465 086.7178 315.1429 14.82419813496564
Epoch (UTC): 04 July 2015 02:45:21
Eccentricity: 0.0001465
inclination: 97.9964°
perigee height: 620 km
apogee height: 623 km
right ascension of ascending node: 184.9230°
argument of perigee: 86.7178°
revolutions per day: 14.82419813
mean anomaly at epoch: 315.1429°
orbit number at epoch: 49656

The dashed part of the orbit path shows where the satellite is in the earth's shadow,  

DLR